Welcome to our new website - Welkom op onze vernieuwde website - Bienvenue sur notre nouveau site web - Willkommen auf unserer neuen Website
Check our progress frequently. Prüfen Sie unsere Fortschritte regelmäßig. Consultez notre progression fréquemment. Komt u straks nog eens terug
Het weer levert geen direct gevaar op.    Er zijn geen waarschuwingen afgegeven.

Regen radar Meer informatie rain snow radar


Bezoek ook deze websites:

Template documentation
and downloads

And another site


U vindt ons ook hier:

UK Metoffice

WeatherCloud

Weather Underground

AWEKAS



Select another period ( hide this area )

Eenheden Periode Custom range Directly to
Metrisch Engels Beide
Dagelijkse Wekelijkse Maandelijkse Jaarlijkse
use both date-selectors for a custom range
previous Dag
With this date

WeatherUnderground graphs for this period ( click here )


Warning: Division by zero in /customers/a/f/b/meteoassenede.be/httpd.www/weather28/wu/WU-History4.php on line 835
Dagelijkse Samenvatting Woensdag 23 september 2020
Tijd Temp. ( °C ) Dew pt. ( °C ) Wind ( km/h ) van Windvlaag ( km/h ) Luchtdruk ( hPa ) Humid.( % ) Rainrate ( cm ) Zonneschijn ( W/m2 )
Hoog14,2 13,1 10,0 ZW ( 137/312 ) 11,0 1006,8 94 - 0
Gemiddeld13,4 12,1 4,2 WZW #25/75 6,2 1005,8 92 - NAN #0/75
Laag12,7 11,1 -   0,0 1004,7 87 -  
Dagelijkse Tabular details for Woensdag 23 september 2020
Tijd Temp. ( °C ) Dew pt. ( °C ) Wind ( km/h ) van Windvlaag ( km/h ) Luchtdruk ( hPa ) Humid.( % ) Rainrate ( cm ) Zonneschijn ( W/m2 )
00:04 13,4 11,6   Kalm   1006,8 89 - -
00:09 13,5 11,7   Kalm   1006,8 89 - -
00:14 13,6 11,7   Kalm   1006,8 89 - -
00:19 13,6 11,6 3,0 Westen 5,0 1006,8 88 - -
00:24 13,4 11,3 1,0 WZW 5,0 1006,8 87 - -
00:29 13,4 11,5 1,0 WZW 3,0 1006,4 88 - -
00:34 13,4 11,5 3,0 WZW 3,0 1006,4 88 - -
00:38 13,4 11,5 3,0 WZW 5,0 1006,4 88 - -
00:44 13,4 11,5 3,0 WZW 3,0 1006,4 88 - -
00:49 13,4 11,6 3,0 WZW 3,0 1006,4 89 - -
00:54 13,4 11,6 3,0 WZW 5,0 1006,4 89 - -
00:59 13,4 11,6 3,0 WZW 5,0 1006,4 89 - -
01:04 13,5 11,7 1,0 WZW 3,0 1006,4 89 - -
01:09 13,5 11,7 1,0 WZW 3,0 1006,4 89 - -
01:14 13,5 11,7 1,0 WZW 3,0 1006,1 89 - -
01:19 13,4 11,5 3,0 WZW 3,0 1006,1 88 - -
01:24 13,2 11,3 3,0 WZW 3,0 1006,1 88 - -
01:29 13,1 11,3 1,0 WZW 3,0 1006,1 89 - -
01:34 12,9 11,1 3,0 WZW 5,0 1006,1 89 - -
01:39 12,9 11,3 3,0 WZW 5,0 1006,1 90 - -
01:44 13,1 11,7 1,0 WZW 5,0 1006,4 91 - -
01:49 13,0 11,6 3,0 WZW 5,0 1006,1 91 - -
01:54 13,1 11,7 3,0 WZW 5,0 1006,1 91 - -
01:59 13,1 11,7 5,0 WZW 5,0 1006,1 91 - -
02:04 13,1 11,7 3,0 WZW 3,0 1006,1 91 - -
02:09 12,9 11,5 3,0 WZW 5,0 1006,1 91 - -
02:14 12,9 11,5 5,0 WZW 5,0 1005,8 91 - -
02:19 12,9 11,5 3,0 WZW 3,0 1005,8 91 - -
02:24 12,8 11,4 5,0 WZW 5,0 1005,8 91 - -
02:29 12,8 11,4 3,0 ZW 8,0 1005,8 91 - -
02:34 12,7 11,4 3,0 ZW 6,0 1005,8 92 - -
02:39 12,7 11,4 5,0 ZZW 5,0 1005,8 92 - -
02:44 12,7 11,4 3,0 ZZW 6,0 1005,8 92 - -
02:49 12,8 11,5 3,0 ZZW 6,0 1005,8 92 - -
02:54 12,8 11,7 6,0 ZZW 6,0 1005,8 93 - -
02:59 12,9 11,8 3,0 ZZW 6,0 1005,8 93 - -
03:04 12,9 11,8 3,0 ZZW 5,0 1005,8 93 - -
03:09 13,0 11,9 5,0 ZZW 6,0 1005,8 93 - -
03:14 13,1 12,0 3,0 ZZW 6,0 1005,8 93 - -
03:19 13,1 12,0 5,0 ZZW 6,0 1005,8 93 - -
03:24 12,9 11,8 6,0 ZZW 6,0 1005,8 93 - -
03:29 13,0 11,9 5,0 ZW 6,0 1005,8 93 - -
03:34 13,2 12,1 5,0 ZZW 10,0 1005,8 93 - -
03:39 13,3 12,2 6,0 ZW 8,0 1005,8 93 - -
03:44 13,3 12,2 5,0 ZZW 10,0 1005,8 93 - -
03:48 13,3 12,2 5,0 ZW 5,0 1005,8 93 - -
03:54 13,3 12,2 3,0 ZW 6,0 1005,4 93 - -
03:59 13,2 12,1 3,0 ZZW 6,0 1005,8 93 - -
04:04 13,3 12,2 6,0 ZW 6,0 1005,4 93 - -
04:09 13,4 12,3 5,0 ZW 8,0 1005,4 93 - -
04:14 13,5 12,4 6,0 ZW 8,0 1005,4 93 - -
04:19 13,6 12,5 8,0 ZW 8,0 1005,4 93 - -
04:24 13,7 12,6 6,0 ZW 8,0 1005,4 93 - -
04:29 13,8 12,7 8,0 ZW 10,0 1005,4 93 - -
04:34 13,8 12,7 10,0 ZW 10,0 1005,4 93 - -
04:39 13,9 12,8 6,0 ZW 11,0 1005,4 93 - -
04:44 13,8 12,7 5,0 ZW 10,0 1005,4 93 - -
04:49 13,8 12,7 5,0 ZW 10,0 1005,4 93 - -
04:54 13,8 12,7 8,0 ZW 8,0 1005,4 93 - -
04:59 13,9 12,8 6,0 ZW 10,0 1005,4 93 - -
05:04 13,9 12,8 5,0 ZW 10,0 1005,4 93 - -
05:09 13,8 12,7 6,0 ZW 8,0 1005,1 93 - -
05:14 13,8 12,7 6,0 ZW 6,0 1005,1 93 - -
05:19 13,8 12,7 3,0 ZW 5,0 1005,1 93 - -
05:24 13,8 12,7 5,0 ZZW 6,0 1005,1 93 - -
05:29 13,8 12,7 6,0 ZZW 8,0 1005,1 93 - -
05:34 13,8 12,7 6,0 ZZW 8,0 1005,1 93 - -
05:39 13,8 12,9 6,0 ZZW 10,0 1005,1 94 - -
05:44 14,0 13,0 8,0 ZZW 10,0 1005,1 94 - -
05:49 14,1 13,0 8,0 ZZW 10,0 1005,1 94 - -
05:54 14,1 13,1 5,0 ZW 11,0 1005,1 94 - -
05:59 14,1 13,1 3,0 ZW 8,0 1005,1 94 - -
06:04 14,1 13,0 5,0 ZW 8,0 1005,1 93 - -
06:09 14,2 13,1 5,0 Zuiden 11,0 1005,1 93 - -
06:14 14,2 13,1 6,0 Zuiden 8,0 1004,7 93 - -
Dagelijkse Samenvatting Woensdag 23 september 2020
Tijd Temp. ( °C ) Dew pt. ( °C ) Wind ( km/h ) van Windvlaag ( km/h ) Luchtdruk ( hPa ) Humid.( % ) Rainrate ( cm ) Zonneschijn ( W/m2 )
Hoog14,2 13,1 10,0 ZW ( 137/312 ) 11,0 1006,8 94 - 0
Gemiddeld13,4 12,1 4,2 WZW #25/75 6,2 1005,8 92 - NAN #0/75
Laag12,7 11,1 -   0,0 1004,7 87 -  
Dagelijkse Tabular details for Woensdag 23 september 2020
Tijd Temp. ( °C ) Dew pt. ( °C ) Wind ( km/h ) van Windvlaag ( km/h ) Luchtdruk ( hPa ) Humid.( % ) Rainrate ( cm ) Zonneschijn ( W/m2 )
00:04 13,4 11,6   Kalm   1006,8 89 - -
00:09 13,5 11,7   Kalm   1006,8 89 - -
00:14 13,6 11,7   Kalm   1006,8 89 - -
00:19 13,6 11,6 3,0 Westen 5,0 1006,8 88 - -
00:24 13,4 11,3 1,0 WZW 5,0 1006,8 87 - -
00:29 13,4 11,5 1,0 WZW 3,0 1006,4 88 - -
00:34 13,4 11,5 3,0 WZW 3,0 1006,4 88 - -
00:38 13,4 11,5 3,0 WZW 5,0 1006,4 88 - -
00:44 13,4 11,5 3,0 WZW 3,0 1006,4 88 - -
00:49 13,4 11,6 3,0 WZW 3,0 1006,4 89 - -
00:54 13,4 11,6 3,0 WZW 5,0 1006,4 89 - -
00:59 13,4 11,6 3,0 WZW 5,0 1006,4 89 - -
01:04 13,5 11,7 1,0 WZW 3,0 1006,4 89 - -
01:09 13,5 11,7 1,0 WZW 3,0 1006,4 89 - -
01:14 13,5 11,7 1,0 WZW 3,0 1006,1 89 - -
01:19 13,4 11,5 3,0 WZW 3,0 1006,1 88 - -
01:24 13,2 11,3 3,0 WZW 3,0 1006,1 88 - -
01:29 13,1 11,3 1,0 WZW 3,0 1006,1 89 - -
01:34 12,9 11,1 3,0 WZW 5,0 1006,1 89 - -
01:39 12,9 11,3 3,0 WZW 5,0 1006,1 90 - -
01:44 13,1 11,7 1,0 WZW 5,0 1006,4 91 - -
01:49 13,0 11,6 3,0 WZW 5,0 1006,1 91 - -
01:54 13,1 11,7 3,0 WZW 5,0 1006,1 91 - -
01:59 13,1 11,7 5,0 WZW 5,0 1006,1 91 - -
02:04 13,1 11,7 3,0 WZW 3,0 1006,1 91 - -
02:09 12,9 11,5 3,0 WZW 5,0 1006,1 91 - -
02:14 12,9 11,5 5,0 WZW 5,0 1005,8 91 - -
02:19 12,9 11,5 3,0 WZW 3,0 1005,8 91 - -
02:24 12,8 11,4 5,0 WZW 5,0 1005,8 91 - -
02:29 12,8 11,4 3,0 ZW 8,0 1005,8 91 - -
02:34 12,7 11,4 3,0 ZW 6,0 1005,8 92 - -
02:39 12,7 11,4 5,0 ZZW 5,0 1005,8 92 - -
02:44 12,7 11,4 3,0 ZZW 6,0 1005,8 92 - -
02:49 12,8 11,5 3,0 ZZW 6,0 1005,8 92 - -
02:54 12,8 11,7 6,0 ZZW 6,0 1005,8 93 - -
02:59 12,9 11,8 3,0 ZZW 6,0 1005,8 93 - -
03:04 12,9 11,8 3,0 ZZW 5,0 1005,8 93 - -
03:09 13,0 11,9 5,0 ZZW 6,0 1005,8 93 - -
03:14 13,1 12,0 3,0 ZZW 6,0 1005,8 93 - -
03:19 13,1 12,0 5,0 ZZW 6,0 1005,8 93 - -
03:24 12,9 11,8 6,0 ZZW 6,0 1005,8 93 - -
03:29 13,0 11,9 5,0 ZW 6,0 1005,8 93 - -
03:34 13,2 12,1 5,0 ZZW 10,0 1005,8 93 - -
03:39 13,3 12,2 6,0 ZW 8,0 1005,8 93 - -
03:44 13,3 12,2 5,0 ZZW 10,0 1005,8 93 - -
03:48 13,3 12,2 5,0 ZW 5,0 1005,8 93 - -
03:54 13,3 12,2 3,0 ZW 6,0 1005,4 93 - -
03:59 13,2 12,1 3,0 ZZW 6,0 1005,8 93 - -
04:04 13,3 12,2 6,0 ZW 6,0 1005,4 93 - -
04:09 13,4 12,3 5,0 ZW 8,0 1005,4 93 - -
04:14 13,5 12,4 6,0 ZW 8,0 1005,4 93 - -
04:19 13,6 12,5 8,0 ZW 8,0 1005,4 93 - -
04:24 13,7 12,6 6,0 ZW 8,0 1005,4 93 - -
04:29 13,8 12,7 8,0 ZW 10,0 1005,4 93 - -
04:34 13,8 12,7 10,0 ZW 10,0 1005,4 93 - -
04:39 13,9 12,8 6,0 ZW 11,0 1005,4 93 - -
04:44 13,8 12,7 5,0 ZW 10,0 1005,4 93 - -
04:49 13,8 12,7 5,0 ZW 10,0 1005,4 93 - -
04:54 13,8 12,7 8,0 ZW 8,0 1005,4 93 - -
04:59 13,9 12,8 6,0 ZW 10,0 1005,4 93 - -
05:04 13,9 12,8 5,0 ZW 10,0 1005,4 93 - -
05:09 13,8 12,7 6,0 ZW 8,0 1005,1 93 - -
05:14 13,8 12,7 6,0 ZW 6,0 1005,1 93 - -
05:19 13,8 12,7 3,0 ZW 5,0 1005,1 93 - -
05:24 13,8 12,7 5,0 ZZW 6,0 1005,1 93 - -
05:29 13,8 12,7 6,0 ZZW 8,0 1005,1 93 - -
05:34 13,8 12,7 6,0 ZZW 8,0 1005,1 93 - -
05:39 13,8 12,9 6,0 ZZW 10,0 1005,1 94 - -
05:44 14,0 13,0 8,0 ZZW 10,0 1005,1 94 - -
05:49 14,1 13,0 8,0 ZZW 10,0 1005,1 94 - -
05:54 14,1 13,1 5,0 ZW 11,0 1005,1 94 - -
05:59 14,1 13,1 3,0 ZW 8,0 1005,1 94 - -
06:04 14,1 13,0 5,0 ZW 8,0 1005,1 93 - -
06:09 14,2 13,1 5,0 Zuiden 11,0 1005,1 93 - -
06:14 14,2 13,1 6,0 Zuiden 8,0 1004,7 93 - -

Download your copy of this data-set  here

Our weather-data as stored at Weather Underground. Script ontwikkeld door Jim McMurry. Aangepast voor de template door Leuven-Template.eu

Apparatuur in gebruik:

Weerstation
Davis Vantage Pro2

Weerprogramma
Meteobridge

Weercomputer
TP-Link TL-MR3020

Webleverancier
One.com

Davis Vantage Pro2

Meteobridge

TP-Link TL-MR3020

One.com